Wilmington, DE

7:29 PM EDT on June 22, 2017 (GMT -0400)
New Castle County

Weather History for KILG - September, 2013

Change the Weather History Date:

Monday, September 16, 2013

  Actual Average Record
Temperature  
Mean Temperature 66 °F 68 °F  
Max Temperature 74 °F 78 °F 94 °F (1970)
Min Temperature 57 °F 58 °F 40 °F (1984)
Degree Days  
Heating Degree Days 0 1  
Month to date heating degree days 15 9  
Since 1 July heating degree days 15 11  
Cooling Degree Days 1 4  
Month to date cooling degree days 105 96  
Year to date cooling degree days 1190 1089  
Growing Degree Days 14 (Base 50)    
Moisture  
Dew Point 55 °F    
Average Humidity 70    
Maximum Humidity 90    
Minimum Humidity 49    
Precipitation  
Precipitation 0.01 in 0.15 in 8.29 in (1999)
Month to date precipitation 0.46 2.11  
Year to date precipitation 36.79 30.87  
Snow  
Snow 0.00 in 0.00 in 0.00 in (1894)
Month to date snowfall 0.0 0.0  
Since 1 July snowfall 0.0 0.0  
Since 1 September snowfall 0.0 0.0  
Snow Depth 0.00 in    
Sea Level Pressure  
Sea Level Pressure 30.12 in    
Wind  
Wind Speed 7 mph (NNW)    
Max Wind Speed 16 mph    
Max Gust Speed 22 mph    
Visibility 10 miles    
Events Rain    
T = Trace of Precipitation, MM = Missing Value Source: NWS Daily Summary

Daily Weather History Graph

Daily Weather History Graph

Search for Another Location

Airport or City:

Trip Planner

Search our weather history database for the weather conditions in past years. The results will help you decide how hot, cold, wet, or windy it might be!

Date:

Astronomy

Sep. 16, 2013 Rise Set
Actual Time 6:44 AM EDT 7:09 PM EDT
Civil Twilight 6:17 AM EDT 7:35 PM EDT
Nautical Twilight 5:45 AM EDT 8:07 PM EDT
Astronomical Twilight 5:13 AM EDT 8:40 PM EDT
Moon 5:16 PM EDT (9/16) 3:28 AM EDT (9/16)
Length of Visible Light 13h 18m
Length of Day
12h 24m
Waxing Gibbous, 90% of the Moon is Illuminated
Sep 16
Waxing Gibbous
Sep 19
Full
Sep 26
Last Quarter
Oct 4
New
Oct 11
First Quarter

Hourly Weather History & Observations

Time (EDT) Temp. Dew Point Humidity Pressure Visibility Wind Dir Wind Speed Gust Speed Precip Events Conditions
12:51 AM 63.0 °F 54.0 °F 72% 30.10 in 10.0 mi Calm Calm - N/A   Overcast
1:51 AM 63.0 °F 55.0 °F 75% 30.10 in 10.0 mi Calm Calm - N/A   Overcast
2:51 AM 63.0 °F 55.9 °F 78% 30.08 in 10.0 mi SSW 6.9 mph - N/A   Overcast
3:51 AM 64.0 °F 57.0 °F 78% 30.06 in 10.0 mi SW 8.1 mph - N/A   Mostly Cloudy
4:51 AM 63.0 °F 57.9 °F 84% 30.06 in 10.0 mi West 4.6 mph - N/A   Mostly Cloudy
5:51 AM 62.1 °F 57.9 °F 86% 30.06 in 10.0 mi West 3.5 mph - N/A   Scattered Clouds
6:51 AM 61.0 °F 57.0 °F 87% 30.07 in 10.0 mi Calm Calm - N/A   Partly Cloudy
7:51 AM 63.0 °F 57.9 °F 84% 30.08 in 10.0 mi Variable 4.6 mph - N/A   Mostly Cloudy
8:51 AM 64.9 °F 57.9 °F 78% 30.10 in 10.0 mi NNW 11.5 mph - N/A   Mostly Cloudy
9:51 AM 64.0 °F 57.0 °F 78% 30.12 in 10.0 mi North 8.1 mph - 0.00 in Rain Light Rain
10:51 AM 62.1 °F 57.9 °F 86% 30.11 in 6.0 mi North 6.9 mph - 0.01 in Rain Rain
11:51 AM 62.1 °F 57.0 °F 84% 30.12 in 10.0 mi North 6.9 mph - 0.00 in   Overcast
12:51 PM 63.0 °F 57.0 °F 81% 30.12 in 10.0 mi NW 6.9 mph - N/A   Overcast
1:51 PM 69.1 °F 55.9 °F 63% 30.12 in 10.0 mi North 8.1 mph - N/A   Mostly Cloudy
2:51 PM 72.0 °F 53.1 °F 51% 30.11 in 10.0 mi NNW 10.4 mph - N/A   Clear
3:51 PM 72.0 °F 53.1 °F 51% 30.10 in 10.0 mi NW 9.2 mph - N/A   Mostly Cloudy
4:51 PM 72.0 °F 52.0 °F 49% 30.11 in 10.0 mi North 10.4 mph - N/A   Overcast
5:51 PM 72.0 °F 51.1 °F 48% 30.12 in 10.0 mi NNW 13.8 mph - N/A   Mostly Cloudy
6:51 PM 68.0 °F 52.0 °F 56% 30.13 in 10.0 mi NNW 5.8 mph - N/A   Scattered Clouds
7:51 PM 61.0 °F 53.1 °F 75% 30.15 in 10.0 mi NNW 5.8 mph - N/A   Clear
8:51 PM 60.1 °F 53.1 °F 78% 30.19 in 10.0 mi NNW 6.9 mph - N/A   Clear
9:51 PM 57.9 °F 51.1 °F 78% 30.21 in 10.0 mi NNW 5.8 mph - N/A   Clear
10:51 PM 59.0 °F 51.1 °F 75% 30.23 in 10.0 mi North 5.8 mph - N/A   Clear
11:51 PM 59.0 °F 48.9 °F 69% 30.26 in 10.0 mi North 9.2 mph - N/A   Clear